Location: Girdwood
(60.9430°N, 149.1660°W)
Time: 19:36:30
(UTC-09:00)

Amateur Radio Satellites - All Passes

Search period start: 22 November 2014 19:06
Search period end: 23 November 2014 19:06
Location: Girdwood, 60.9430°N, 149.1660°W

Satellite Date Start Highest point End Downlink Frequencies (MHz)
Time Altitude Azimuth
SHINDAISAT 22 Nov 19:07:04 19:08:42 28° 221° (SW) 19:10:18 437.305
STRAND 1 22 Nov 19:12:42 19:17:12 30° 92° (E) 19:21:39 437.568
COMPASS 1 22 Nov 19:16:38 19:19:47 21° 51° (NE) 19:22:57 437.405
GOMX 1 22 Nov 19:18:55 19:22:30 23° 52° (NE) 19:25:56 467.674
AISAT 22 Nov 19:24:48 19:25:53 11° 33° (NNE) 19:26:59 437.250
DELFI C3 22 Nov 19:28:24 19:30:43 15° 45° (NE) 19:33:02 145.870
BRITE-PL 22 Nov 19:28:25 19:32:40 32° 57° (ENE) 19:36:40 437.365/2234.400
PRISM 22 Nov 19:32:34 19:36:51 76° 107° (ESE) 19:41:07 437.425
CUTE 1.7 & AOD 2 22 Nov 19:36:50 19:40:37 33° 58° (ENE) 19:44:26 437.475
FUNcube-1 22 Nov 19:46:46 19:48:53 14° 43° (NE) 19:50:59 145.935
CUTE-I 22 Nov 19:47:01 19:51:00 21° 274° (W) 19:55:00 437.470
HO-68 22 Nov 19:47:50 19:54:57 67° 59° (ENE) 20:02:06 435.675
UKube-1 22 Nov 19:48:06 19:51:30 23° 49° (NE) 19:54:56 .
CUBEBUG 2 22 Nov 19:55:05 19:57:55 18° 48° (NE) 20:00:44 437.445
CINEMA 3 22 Nov 19:56:16 19:59:40 23° 52° (NE) 20:02:59 145.822/145.860
JAS-2 22 Nov 19:58:05 20:02:30 16° 290° (WNW) 20:06:57 435.910
Oscar 11 22 Nov 20:01:51 20:05:27 26° 54° (NE) 20:09:04 145.826/435.025
UWE-3 22 Nov 20:02:48 20:05:40 18° 48° (NE) 20:08:31 435.000/436.395/437.385
GONETS M04 22 Nov 20:06:36 20:15:33 83° 74° (ENE) 20:24:24
CUBESAT XI-V 22 Nov 20:08:53 20:13:37 73° 105° (ESE) 20:18:18 437.345
SEEDS 22 Nov 20:14:04 20:18:10 53° 65° (ENE) 20:22:18 437.485
MOZHAYETS 4 22 Nov 20:15:37 20:19:17 23° 310° (NW) 20:22:57
AUBIESAT-1 22 Nov 20:17:22 20:18:03 10° 5° (N) 20:18:45 437.475
DX 1 22 Nov 20:19:16 20:23:14 34° 57° (ENE) 20:27:13 434.975-435.025
MaSat-1 22 Nov 20:19:18 20:21:04 16° 341° (NNW) 20:22:45 437.345
M-CUBED/EXP-1 PRIME 22 Nov 20:19:48 20:20:38 10° 7° (N) 20:21:28 437.505
ESTCUBE 1 22 Nov 20:21:50 20:23:55 13° 37° (NE) 20:26:00 437.505/2401.250
PCSat 22 Nov 20:22:25 20:24:45 13° 104° (ESE) 20:27:06 145.827
DOVE 4 22 Nov 20:30:06 20:34:29 50° 64° (ENE) 20:38:40 437.250
AIST 1 22 Nov 20:31:59 20:36:01 36° 92° (E) 20:40:05
VELOX 1 22 Nov 20:34:01 20:37:31 23° 49° (NE) 20:41:01 145.980
CANX-2 22 Nov 20:36:56 20:41:10 89° 73° (ENE) 20:45:27 2200.000
AAUSAT CUBESAT 2 22 Nov 20:38:07 20:42:15 66° 68° (ENE) 20:46:26 437.432
ZACube-1 22 Nov 20:44:54 20:48:31 29° 56° (ENE) 20:52:07 437.345
COMPASS 1 22 Nov 20:50:53 20:55:04 88° 72° (ENE) 20:59:18 437.405
STRAND 1 22 Nov 20:51:44 20:56:52 71° 294° (WNW) 21:01:58 437.568
HUMSAT D 22 Nov 20:55:02 20:58:26 25° 54° (NE) 21:01:49 437.325/437.525
GOMX 1 22 Nov 20:55:32 21:00:16 90° 136° (SE) 21:04:42 467.674
AISAT 22 Nov 20:57:26 21:01:22 31° 55° (NE) 21:05:18 437.250
DELFI C3 22 Nov 21:01:18 21:05:18 55° 66° (ENE) 21:09:20 145.870
BRITE-PL 22 Nov 21:06:09 21:11:03 64° 257° (WSW) 21:15:35 437.365/2234.400
50 SAT 22 Nov 21:07:25 21:10:49 26° 55° (NE) 21:14:13 437.505
PRISM 22 Nov 21:08:34 21:12:05 25° 308° (NW) 21:15:36 437.425
RS-15 22 Nov 21:10:58 21:21:57 77° 345° (NNW) 21:33:13 29.354- 29.394
CUTE 1.7 & AOD 2 22 Nov 21:12:19 21:16:27 53° 259° (W) 21:20:38 437.475
FUNcube-1 22 Nov 21:20:24 21:24:27 49° 64° (ENE) 21:28:29 145.935
UKube-1 22 Nov 21:22:51 21:27:14 89° 66° (ENE) 21:31:39 .
CUBEBUG 1 22 Nov 21:24:02 21:27:38 25° 52° (NE) 21:31:14 437.445
SPROUT 22 Nov 21:28:40 21:30:24 12° 38° (NE) 21:32:08 437.525
TISAT 1 22 Nov 21:29:31 21:31:32 13° 40° (NE) 21:33:32 437.305
CUBEBUG 2 22 Nov 21:29:50 21:34:04 71° 69° (ENE) 21:38:15 437.445
CINEMA 3 22 Nov 21:32:10 21:36:32 83° 253° (WSW) 21:40:47 145.822/145.860
HO-68 22 Nov 21:36:17 21:43:06 44° 263° (W) 21:49:59 435.675
Oscar 11 22 Nov 21:37:01 21:41:19 72° 255° (WSW) 21:45:40 145.826/435.025
UWE-3 22 Nov 21:37:28 21:41:40 73° 69° (ENE) 21:45:51 435.000/436.395/437.385
BEESAT 3 22 Nov 21:44:37 21:47:01 15° 118° (ESE) 21:49:26 437.485
CUBESAT XI-V 22 Nov 21:46:43 21:50:46 29° 306° (NW) 21:54:47 437.345
AUBIESAT-1 22 Nov 21:48:47 21:51:30 16° 28° (NNE) 21:54:20 437.475
SEEDS 22 Nov 21:50:32 21:54:16 30° 266° (W) 21:58:02 437.485
M-CUBED/EXP-1 PRIME 22 Nov 21:51:19 21:54:09 17° 29° (NNE) 21:57:07 437.505
DX 1 22 Nov 21:55:05 21:59:24 53° 258° (WSW) 22:03:43 434.975-435.025
MaSat-1 22 Nov 21:55:25 21:56:36 13° 5° (N) 21:57:45 437.345
ESTCUBE 1 22 Nov 21:55:32 21:59:46 39° 59° (ENE) 22:04:02 437.505/2401.250
BEESAT 2 22 Nov 21:56:44 21:59:28 17° 119° (ESE) 22:02:14 435.950
PCSat 22 Nov 22:01:49 22:06:57 45° 126° (SE) 22:12:08 145.827
GONETS M04 22 Nov 22:03:52 22:11:42 37° 280° (W) 22:19:29
DOVE 4 22 Nov 22:08:21 22:12:29 34° 265° (W) 22:16:27 437.250
VELOX 1 22 Nov 22:09:09 22:13:39 87° 71° (ENE) 22:18:10 145.980
AIST 1 22 Nov 22:09:23 22:13:39 46° 293° (WNW) 22:17:57
CANX-2 22 Nov 22:14:47 22:17:46 18° 273° (W) 22:20:46 2200.000
AAUSAT CUBESAT 2 22 Nov 22:14:54 22:18:21 25° 269° (W) 22:21:49 437.432
AIST 2 22 Nov 22:16:01 22:18:32 15° 117° (ESE) 22:21:04 435.215
ITUPSAT 1 22 Nov 22:16:27 22:18:21 12° 32° (NNE) 22:20:16 437.325
ZACube-1 22 Nov 22:20:34 22:24:44 60° 257° (WSW) 22:28:53 437.345
SWISSCUBE 22 Nov 22:27:59 22:30:28 14° 35° (NE) 22:32:57 437.505
COMPASS 1 22 Nov 22:28:28 22:31:26 19° 273° (W) 22:34:26 437.405
HUMSAT D 22 Nov 22:29:50 22:33:58 71° 255° (WSW) 22:38:07 437.325/437.525
CUSAT 1 22 Nov 22:30:43 22:32:20 13° 51° (NE) 22:34:08 437.405
STRAND 1 22 Nov 22:31:29 22:35:24 23° 316° (NW) 22:39:18 437.568
TIGRISAT 22 Nov 22:33:18 22:36:08 17° 86° (E) 22:39:00 435.000
AISAT 22 Nov 22:33:21 22:37:49 63° 256° (WSW) 22:42:18 437.250
POLYITAN 1 22 Nov 22:34:28 22:36:28 13° 82° (E) 22:38:29 437.675
GOMX 1 22 Nov 22:35:36 22:39:00 20° 272° (W) 22:42:17 467.674
DELFI C3 22 Nov 22:37:21 22:40:54 28° 267° (W) 22:44:30 145.870
QB50P2 22 Nov 22:37:46 22:40:00 14° 83° (E) 22:42:13 145.880/145.840
DANDE 22 Nov 22:41:26 22:42:55 12° 51° (NE) 22:44:31 436.750
50 SAT 22 Nov 22:41:54 22:45:55 64° 256° (WSW) 22:49:57 437.505
UNISAT 6 22 Nov 22:44:42 22:48:00 21° 89° (E) 22:51:20 437.425
DUCHIFAT 1 22 Nov 22:45:53 22:48:28 16° 85° (E) 22:51:03 145.980
BRITE-PL 22 Nov 22:47:47 22:50:27 15° 277° (W) 22:53:01 437.365/2234.400
CUTE 1.7 & AOD 2 22 Nov 22:52:18 22:53:25 11° 281° (W) 22:54:33 437.475
FUNcube-1 22 Nov 22:57:14 23:01:02 32° 265° (W) 23:04:49 145.935
BEESAT 22 Nov 22:58:43 23:01:58 19° 42° (NE) 23:05:14 436.000
CUBEBUG 1 22 Nov 22:59:09 23:03:38 83° 253° (WSW) 23:08:07 437.445
UKube-1 22 Nov 23:00:52 23:04:02 19° 272° (W) 23:07:14 .
SPROUT 22 Nov 23:01:30 23:05:31 39° 60° (ENE) 23:09:33 437.525
TISAT 1 22 Nov 23:02:26 23:06:29 43° 62° (ENE) 23:10:33 437.305
NANOSAT C BR1 22 Nov 23:04:18 23:07:35 21° 89° (E) 23:10:49 145.865
CUBEBUG 2 22 Nov 23:07:51 23:11:15 23° 270° (W) 23:14:37 437.445
CINEMA 3 22 Nov 23:11:36 23:14:27 17° 274° (W) 23:17:14 145.822/145.860
ANTELSAT 22 Nov 23:12:44 23:16:40 32° 95° (E) 23:20:40 437.575/2403.000
QB50P1 22 Nov 23:13:35 23:17:06 25° 91° (E) 23:20:36 145.935-145.965
UWE-3 22 Nov 23:15:24 23:18:43 22° 270° (W) 23:22:01 435.000/436.395/437.385
Oscar 11 22 Nov 23:15:47 23:18:19 15° 276° (W) 23:20:52 145.826/435.025
BEESAT 3 22 Nov 23:20:25 23:24:29 55° 139° (SE) 23:28:37 437.485
AUBIESAT-1 22 Nov 23:21:31 23:25:31 40° 50° (NE) 23:29:52 437.475
M-CUBED/EXP-1 PRIME 22 Nov 23:24:14 23:28:17 44° 52° (NE) 23:32:41 437.505
RS-15 22 Nov 23:24:15 23:35:18 78° 17° (NNE) 23:46:44 29.354- 29.394
CUBESAT XI-V 22 Nov 23:25:57 23:26:55 11° 329° (NNW) 23:27:53 437.345
HO-68 22 Nov 23:29:42 23:32:55 13° 287° (WNW) 23:36:08 435.675
MaSat-1 22 Nov 23:29:58 23:32:00 24° 29° (NNE) 23:34:00 437.345
ESTCUBE 1 22 Nov 23:32:13 23:36:38 48° 260° (W) 23:41:06 437.505/2401.250
BEESAT 2 22 Nov 23:32:58 23:37:05 61° 141° (SE) 23:41:16 435.950
DX 1 22 Nov 23:35:13 23:36:41 11° 279° (W) 23:38:09 434.975-435.025
POPSAT HIP 1 22 Nov 23:37:44 23:41:41 36° 97° (E) 23:45:36 437.405
BUGSAT 1 22 Nov 23:42:13 23:46:03 34° 96° (E) 23:49:48 437.445
PCSat 22 Nov 23:44:50 23:50:16 71° 329° (NNW) 23:55:44 145.827
VELOX 1 22 Nov 23:47:31 23:50:52 20° 272° (W) 23:54:14 145.980
STARS 22 Nov 23:48:59 23:50:26 12° 35° (NE) 23:51:53 437.465
AIST 1 22 Nov 23:50:23 23:52:31 13° 317° (NW) 23:54:39
ITUPSAT 1 22 Nov 23:50:45 23:55:02 33° 54° (NE) 23:59:20 437.325
AIST 2 22 Nov 23:52:12 23:56:23 54° 139° (SE) 00:00:38 435.215
ZACube-1 23 Nov 00:00:21 00:02:03 12° 278° (W) 00:03:44 437.345
GONETS M04 23 Nov 00:02:44 00:05:48 12° 306° (NW) 00:08:52
SWISSCUBE 23 Nov 00:02:48 00:07:16 40° 58° (ENE) 00:11:47 437.505
HUMSAT D 23 Nov 00:08:22 00:10:35 14° 276° (W) 00:12:50 437.325/437.525
POLYITAN 1 23 Nov 00:09:06 00:13:20 63° 104° (ESE) 00:17:32 437.675
TIGRISAT 23 Nov 00:09:16 00:13:38 80° 107° (ESE) 00:18:03 435.000
STRAND 1 23 Nov 00:12:29 00:12:59 10° 339° (NNW) 00:13:30 437.568
QB50P2 23 Nov 00:12:32 00:16:47 68° 104° (ESE) 00:21:00 145.880/145.840
CUSAT 1 23 Nov 00:12:33 00:16:03 60° 70° (ENE) 00:20:40 437.405
AISAT 23 Nov 00:13:03 00:15:23 14° 277° (W) 00:17:44 437.250
KKS-1 23 Nov 00:20:08 00:23:19 20° 46° (NE) 00:26:31 437.445
50 SAT 23 Nov 00:20:20 00:22:06 13° 277° (W) 00:23:52 437.505
DUCHIFAT 1 23 Nov 00:20:51 00:25:07 77° 106° (ESE) 00:29:20 145.980
UNISAT 6 23 Nov 00:21:01 00:25:24 84° 289° (WNW) 00:29:51 437.425
DANDE 23 Nov 00:23:34 00:26:56 63° 70° (ENE) 00:31:23 436.750
BEESAT 23 Nov 00:34:19 00:39:02 58° 64° (ENE) 00:43:47 436.000
SPROUT 23 Nov 00:37:29 00:41:38 44° 261° (W) 00:45:48 437.525
CUBEBUG 1 23 Nov 00:37:39 00:40:43 18° 274° (W) 00:43:48 437.445
TISAT 1 23 Nov 00:38:26 00:42:27 38° 263° (W) 00:46:28 437.305
NANOSAT C BR1 23 Nov 00:39:45 00:44:00 78° 291° (WNW) 00:48:13 145.865
QB50P1 23 Nov 00:49:12 00:53:26 67° 292° (WNW) 00:57:37 145.935-145.965
ANTELSAT 23 Nov 00:49:29 00:53:45 54° 295° (WNW) 00:58:04 437.575/2403.000
Oscar 19 23 Nov 00:51:21 00:53:26 12° 78° (ENE) 00:55:31 437.125/150
AUBIESAT-1 23 Nov 00:56:24 01:00:30 50° 253° (WSW) 01:04:59 437.475
BEESAT 3 23 Nov 00:58:37 01:02:47 62° 341° (NNW) 01:06:59 437.485
M-CUBED/EXP-1 PRIME 23 Nov 00:59:21 01:03:23 45° 254° (WSW) 01:07:48 437.505
MaSat-1 23 Nov 01:04:31 01:06:48 45° 231° (SW) 01:09:02 437.345
BEESAT 2 23 Nov 01:11:20 01:15:30 59° 343° (NNW) 01:19:43 435.950
ESTCUBE 1 23 Nov 01:13:35 01:14:41 11° 282° (WNW) 01:15:47 437.505/2401.250
POPSAT HIP 1 23 Nov 01:13:41 01:17:44 45° 298° (WNW) 01:21:46 437.405
BUGSAT 1 23 Nov 01:17:43 01:21:44 46° 297° (WNW) 01:25:39 437.445
STARS 23 Nov 01:21:52 01:25:51 34° 57° (ENE) 01:29:50 437.465
ITUPSAT 1 23 Nov 01:27:55 01:32:43 66° 256° (WSW) 01:37:34 437.325
PCSat 23 Nov 01:29:09 01:34:23 45° 354° (N) 01:39:38 145.827
AIST 2 23 Nov 01:30:48 01:35:05 63° 341° (NNW) 01:39:25 435.215
RS-15 23 Nov 01:36:52 01:47:46 68° 226° (SW) 01:59:06 29.354- 29.394
ITAMSAT 1 23 Nov 01:36:54 01:39:07 13° 78° (ENE) 01:41:18 435.822/435.867
YUBILEINY 23 Nov 01:37:55 01:43:55 21° 66° (ENE) 01:49:53 435.215
SWISSCUBE 23 Nov 01:40:25 01:45:07 51° 259° (W) 01:49:51 437.505
POLYITAN 1 23 Nov 01:45:26 01:49:05 28° 305° (NW) 01:52:43 437.675
TIGRISAT 23 Nov 01:46:32 01:50:03 25° 308° (NW) 01:53:36 435.000
QB50P2 23 Nov 01:48:52 01:52:28 27° 306° (NW) 01:56:02 145.880/145.840
Gurwin Techsat 1B 23 Nov 01:50:20 01:51:35 11° 75° (ENE) 01:52:51 435.225
KKS-1 23 Nov 01:54:56 01:59:22 71° 68° (ENE) 02:03:50 437.445
CUSAT 1 23 Nov 01:56:07 01:59:06 23° 265° (W) 02:02:45 437.405
DUCHIFAT 1 23 Nov 01:57:13 02:00:40 25° 307° (NW) 02:04:05 145.980
UNISAT 6 23 Nov 01:58:27 02:01:44 21° 310° (NW) 02:05:03 437.425
DANDE 23 Nov 02:07:35 02:10:18 20° 265° (W) 02:13:36 436.750
BEESAT 23 Nov 02:12:51 02:17:12 33° 265° (W) 02:21:35 436.000
NANOSAT C BR1 23 Nov 02:16:19 02:19:22 20° 312° (NW) 02:22:24 145.865
QB50P1 23 Nov 02:25:53 02:28:42 18° 314° (NW) 02:31:30 145.935-145.965
ANTELSAT 23 Nov 02:27:15 02:29:48 16° 317° (NW) 02:32:23 437.575/2403.000
Oscar 19 23 Nov 02:29:02 02:34:04 50° 100° (E) 02:39:05 437.125/150
AUBIESAT-1 23 Nov 02:35:27 02:36:42 11° 275° (W) 02:37:58 437.475
BEESAT 3 23 Nov 02:37:24 02:41:31 49° 5° (N) 02:45:38 437.485
MOZHAYETS 4 23 Nov 02:37:53 02:40:56 18° 44° (NE) 02:43:59
ISS 23 Nov 02:44:37 02:45:07 10° 155° (SSE) 02:45:37 145.825
BEESAT 2 23 Nov 02:50:11 02:54:19 50° 7° (N) 02:58:28 435.950
POPSAT HIP 1 23 Nov 02:50:45 02:52:47 13° 319° (NW) 02:54:49 437.405
HORYU 2 23 Nov 02:52:42 02:54:52 13° 82° (E) 02:57:02 437.375
BUGSAT 1 23 Nov 02:54:22 02:56:23 13° 319° (NW) 02:58:23 437.445
STARS 23 Nov 02:57:54 03:02:14 54° 258° (WSW) 03:06:35 437.465
ITUPSAT 1 23 Nov 03:08:41 03:11:35 16° 277° (W) 03:14:29 437.325
AIST 2 23 Nov 03:09:59 03:14:14 50° 4° (N) 03:18:28 435.215
PCSat 23 Nov 03:13:19 03:18:40 54° 19° (NNE) 03:24:00 145.827
ITAMSAT 1 23 Nov 03:14:49 03:19:54 50° 101° (E) 03:24:57 435.822/435.867
AO-7 23 Nov 03:20:05 03:25:11 17° 76° (ENE) 03:30:17 29.400- 29.500
SWISSCUBE 23 Nov 03:22:18 03:24:10 12° 281° (W) 03:26:02 437.505
STRAND 1 23 Nov 03:25:06 03:27:15 13° 28° (NNE) 03:29:23 437.568
PRISM 23 Nov 03:25:25 03:27:27 13° 39° (NE) 03:29:28 437.425
Gurwin Techsat 1B 23 Nov 03:27:57 03:33:03 43° 98° (E) 03:38:06 435.225
YUBILEINY 23 Nov 03:30:24 03:38:58 60° 92° (E) 03:47:32 435.215
KKS-1 23 Nov 03:32:49 03:36:29 25° 269° (W) 03:40:11 437.445
RS-15 23 Nov 03:49:23 03:58:17 30° 254° (WSW) 04:07:29 29.354- 29.394
Oscar 19 23 Nov 04:08:34 04:13:27 44° 302° (WNW) 04:18:19 437.125/150
CUBESAT XI-V 23 Nov 04:10:35 04:13:19 15° 40° (NE) 04:16:02 437.345
MOZHAYETS 4 23 Nov 04:12:52 04:17:24 59° 66° (ENE) 04:21:59
BEESAT 3 23 Nov 04:15:54 04:20:08 82° 28° (NNE) 04:24:22 437.485
ISS 23 Nov 04:18:38 04:20:49 17° 175° (S) 04:23:00 145.825
HORYU 2 23 Nov 04:28:03 04:32:31 60° 103° (ESE) 04:36:58 437.375
BEESAT 2 23 Nov 04:28:42 04:32:58 88° 30° (NNE) 04:37:12 435.950
STARS 23 Nov 04:38:14 04:39:46 12° 279° (W) 04:41:19 437.465
AIST 2 23 Nov 04:48:54 04:53:16 82° 27° (NNE) 04:57:36 435.215
AIST 1 23 Nov 04:53:04 04:53:14 10° 37° (NE) 04:53:24
ITAMSAT 1 23 Nov 04:54:30 04:59:26 44° 302° (WNW) 05:04:19 435.822/435.867
PCSat 23 Nov 04:56:57 05:02:24 74° 223° (SW) 05:07:49 145.827
PRISM 23 Nov 04:58:05 05:02:06 43° 61° (ENE) 05:06:10 437.425
STRAND 1 23 Nov 05:00:37 05:05:06 31° 51° (NE) 05:09:35 437.568
JAS-2 23 Nov 05:06:27 05:12:52 29° 83° (E) 05:18:45 435.910
Gurwin Techsat 1B 23 Nov 05:08:02 05:13:11 51° 299° (WNW) 05:18:19 435.225
AO-7 23 Nov 05:12:04 05:20:13 52° 101° (ESE) 05:28:20 29.400- 29.500
YUBILEINY 23 Nov 05:27:27 05:36:04 55° 298° (WNW) 05:44:41 435.215
Cubesat XI-IV 23 Nov 05:30:59 05:32:43 11° 76° (ENE) 05:34:25 437.490
SO-50 23 Nov 05:37:21 05:41:03 25° 123° (ESE) 05:44:52 436.795
CUBESAT XI-V 23 Nov 05:45:18 05:49:50 47° 62° (ENE) 05:54:23 437.345
Oscar 19 23 Nov 05:48:41 05:51:45 16° 324° (NW) 05:54:49 437.125/150
MOZHAYETS 4 23 Nov 05:50:52 05:54:58 31° 267° (W) 05:59:07
BEESAT 3 23 Nov 05:54:20 05:58:09 33° 230° (SW) 06:01:56 437.485
ISS 23 Nov 05:54:47 05:56:37 14° 195° (SSW) 05:58:27 145.825
HORYU 2 23 Nov 06:05:03 06:09:02 32° 305° (NW) 06:13:00 437.375
BEESAT 2 23 Nov 06:07:15 06:10:58 30° 232° (SW) 06:14:39 435.950
CUTE-I 23 Nov 06:11:52 06:15:51 21° 86° (E) 06:19:49 437.470
AIST 2 23 Nov 06:27:44 06:31:41 34° 230° (SW) 06:35:35 435.215
AIST 1 23 Nov 06:28:22 06:32:23 32° 61° (ENE) 06:36:22
PRISM 23 Nov 06:33:48 06:37:46 38° 262° (W) 06:41:47 437.425
ITAMSAT 1 23 Nov 06:34:43 06:37:52 16° 325° (NW) 06:41:00 435.822/435.867
STRAND 1 23 Nov 06:38:48 06:43:58 78° 253° (WSW) 06:49:09 437.568
PCSat 23 Nov 06:40:53 06:45:08 24° 246° (WSW) 06:49:23 145.827
Gurwin Techsat 1B 23 Nov 06:48:39 06:52:12 19° 322° (NW) 06:55:45 435.225
JAS-2 23 Nov 06:51:19 06:59:02 84° 108° (ESE) 07:05:57 435.910
O/OREOS (USA 219) 23 Nov 07:02:08 07:05:29 21° 106° (ESE) 07:08:50 437.305
AO-7 23 Nov 07:05:08 07:13:23 66° 306° (NW) 07:21:38 29.400- 29.500
Cubesat XI-IV 23 Nov 07:09:05 07:14:15 46° 99° (E) 07:19:22 437.490
SO-50 23 Nov 07:16:25 07:21:03 75° 146° (SE) 07:25:51 436.795
CUBESAT XI-V 23 Nov 07:22:57 07:27:25 40° 263° (W) 07:31:55 437.345
GONETS M04 23 Nov 07:27:05 07:33:23 23° 68° (ENE) 07:39:42
YUBILEINY 23 Nov 07:28:17 07:35:15 25° 327° (NNW) 07:42:14 435.215
HORYU 2 23 Nov 07:43:17 07:44:34 11° 327° (NNW) 07:45:52 437.375
CUTE-I 23 Nov 07:51:25 07:56:48 80° 108° (ESE) 08:02:08 437.470
POLYITAN 1 23 Nov 08:04:35 08:06:00 12° 37° (NE) 08:07:24 437.675
AIST 1 23 Nov 08:06:00 08:10:19 52° 263° (W) 08:14:34
QB50P2 23 Nov 08:07:38 08:09:13 12° 38° (NE) 08:10:49 145.880/145.840
TIGRISAT 23 Nov 08:07:53 08:10:05 14° 41° (NE) 08:12:16 435.000
DUCHIFAT 1 23 Nov 08:15:17 08:17:11 13° 40° (NE) 08:19:06 145.980
UNISAT 6 23 Nov 08:19:15 08:21:52 16° 44° (NE) 08:24:31 437.425
STRAND 1 23 Nov 08:20:19 08:24:01 20° 275° (W) 08:27:44 437.568
NANOSAT C BR1 23 Nov 08:33:17 08:35:52 16° 44° (NE) 08:38:27 145.865
JAS-2 23 Nov 08:36:34 08:43:32 39° 312° (NW) 08:49:57 435.910
O/OREOS (USA 219) 23 Nov 08:39:51 08:44:21 87° 127° (SE) 08:48:52 437.305
QB50P1 23 Nov 08:42:23 08:45:14 18° 46° (NE) 08:48:06 145.935-145.965
ANTELSAT 23 Nov 08:46:40 08:50:00 22° 51° (NE) 08:53:20 437.575/2403.000
CUTE 1.7 & AOD 2 23 Nov 08:48:20 08:51:03 16° 85° (E) 08:53:45 437.475
GOMX 1 23 Nov 08:48:41 08:50:15 12° 81° (E) 08:51:49 467.674
Cubesat XI-IV 23 Nov 08:49:19 08:54:29 49° 301° (WNW) 08:59:36 437.490
HO-68 23 Nov 08:52:04 08:58:01 27° 87° (E) 09:03:55 435.675
SO-50 23 Nov 08:57:11 09:01:51 59° 349° (N) 09:06:38 436.795
AO-7 23 Nov 08:57:57 09:05:05 33° 331° (NNW) 09:12:13 29.400- 29.500
BRITE-PL 23 Nov 09:01:13 09:04:12 19° 86° (E) 09:07:08 437.365/2234.400
POPSAT HIP 1 23 Nov 09:06:01 09:09:26 24° 52° (NE) 09:12:50 437.405
BUGSAT 1 23 Nov 09:08:08 09:11:25 22° 51° (NE) 09:14:41 437.445
Oscar 11 23 Nov 09:15:45 09:17:35 12° 81° (E) 09:19:24 145.826/435.025
CINEMA 3 23 Nov 09:18:32 09:20:00 12° 81° (E) 09:21:28 145.822/145.860
GONETS M04 23 Nov 09:19:54 09:28:34 64° 94° (E) 09:37:17
SEEDS 23 Nov 09:24:42 09:28:19 26° 92° (E) 09:31:56 437.485
YUBILEINY 23 Nov 09:30:27 09:36:06 18° 0° (N) 09:41:44 435.215
CUTE-I 23 Nov 09:31:52 09:36:31 31° 310° (NW) 09:41:08 437.470
DX 1 23 Nov 09:34:18 09:36:51 15° 85° (E) 09:39:23 434.975-435.025
POLYITAN 1 23 Nov 09:37:02 09:40:57 36° 59° (ENE) 09:44:52 437.675
QB50P2 23 Nov 09:40:14 09:44:11 38° 60° (ENE) 09:48:08 145.880/145.840
TIGRISAT 23 Nov 09:41:54 09:46:00 47° 63° (ENE) 09:50:07 435.000
AIST 1 23 Nov 09:45:46 09:47:01 11° 285° (WNW) 09:48:15
AAUSAT CUBESAT 2 23 Nov 09:47:29 09:51:17 31° 94° (E) 09:55:05 437.432
DUCHIFAT 1 23 Nov 09:48:08 09:52:10 42° 61° (ENE) 09:56:12 145.980
CANX-2 23 Nov 09:48:21 09:52:29 45° 99° (E) 09:56:37 2200.000
UNISAT 6 23 Nov 09:53:46 09:57:58 58° 66° (ENE) 10:02:12 437.425
DOVE 4 23 Nov 09:56:44 10:00:27 30° 94° (E) 10:04:09 437.250
ZACube-1 23 Nov 10:00:08 10:02:28 14° 84° (E) 10:04:47 437.345
COMPASS 1 23 Nov 10:00:37 10:04:41 42° 98° (E) 10:08:44 437.405
HUMSAT D 23 Nov 10:06:18 10:07:30 11° 81° (E) 10:08:42 437.325/437.525
NANOSAT C BR1 23 Nov 10:06:51 10:11:03 57° 66° (ENE) 10:15:14 145.865
DELFI C3 23 Nov 10:07:39 10:11:07 25° 91° (E) 10:14:34 145.870
50 SAT 23 Nov 10:14:48 10:15:53 11° 81° (E) 10:16:58 437.505
AISAT 23 Nov 10:15:32 10:17:58 14° 83° (E) 10:20:24 437.250
QB50P1 23 Nov 10:16:17 10:20:31 67° 68° (ENE) 10:24:46 145.935-145.965
O/OREOS (USA 219) 23 Nov 10:20:14 10:24:17 32° 331° (NNW) 10:28:19 437.305
JAS-2 23 Nov 10:21:29 10:26:47 21° 337° (NNW) 10:31:51 435.910
ANTELSAT 23 Nov 10:22:06 10:26:23 88° 252° (WSW) 10:30:43 437.575/2403.000
CUTE 1.7 & AOD 2 23 Nov 10:23:25 10:27:43 78° 106° (ESE) 10:32:01 437.475
GOMX 1 23 Nov 10:25:13 10:29:24 61° 103° (ESE) 10:33:31 467.674
Cubesat XI-IV 23 Nov 10:30:03 10:33:35 18° 323° (NW) 10:37:06 437.490
FUNcube-1 23 Nov 10:35:19 10:38:50 25° 92° (E) 10:42:22 145.935
UKube-1 23 Nov 10:36:57 10:41:05 40° 98° (E) 10:45:11 .
SO-50 23 Nov 10:38:12 10:42:56 61° 13° (NNE) 10:47:46 436.795
BRITE-PL 23 Nov 10:39:08 10:43:26 85° 289° (WNW) 10:47:35 437.365/2234.400
HO-68 23 Nov 10:39:36 10:46:52 81° 110° (ESE) 10:54:03 435.675
CUBEBUG 1 23 Nov 10:40:30 10:41:28 11° 79° (E) 10:42:25 437.445
POPSAT HIP 1 23 Nov 10:40:41 10:44:58 82° 253° (WSW) 10:49:16 437.405
Oscar 19 23 Nov 10:40:45 10:43:54 17° 37° (NE) 10:47:04 437.125/150
BUGSAT 1 23 Nov 10:42:13 10:46:30 89° 248° (WSW) 10:50:46 437.445
CUBEBUG 2 23 Nov 10:47:36 10:51:32 38° 97° (E) 10:55:29 437.445
AO-7 23 Nov 10:49:32 10:55:49 25° 358° (N) 11:02:06 29.400- 29.500
Oscar 11 23 Nov 10:50:25 10:54:44 58° 102° (ESE) 10:59:01 145.826/435.025
UWE-3 23 Nov 10:53:55 10:57:51 38° 97° (E) 11:01:50 435.000/436.395/437.385
CINEMA 3 23 Nov 10:54:03 10:58:11 58° 102° (ESE) 11:02:21 145.822/145.860
SEEDS 23 Nov 11:00:18 11:04:32 63° 293° (WNW) 11:08:45 437.485
DX 1 23 Nov 11:09:33 11:13:56 71° 106° (ESE) 11:18:17 434.975-435.025
POLYITAN 1 23 Nov 11:12:46 11:16:54 47° 260° (W) 11:21:02 437.675
CUTE-I 23 Nov 11:12:48 11:15:12 13° 333° (NNW) 11:17:37 437.470
ESTCUBE 1 23 Nov 11:15:12 11:18:38 21° 88° (E) 11:22:03 437.505/2401.250
QB50P2 23 Nov 11:16:01 11:20:07 44° 261° (W) 11:24:14 145.880/145.840
GONETS M04 23 Nov 11:17:13 11:25:48 52° 300° (WNW) 11:34:28
TIGRISAT 23 Nov 11:19:03 11:22:57 34° 264° (W) 11:26:53 435.000
AAUSAT CUBESAT 2 23 Nov 11:23:06 11:27:13 51° 295° (WNW) 11:31:19 437.432
DUCHIFAT 1 23 Nov 11:24:07 11:28:08 39° 262° (W) 11:32:10 145.980
CANX-2 23 Nov 11:24:29 11:28:26 37° 300° (WNW) 11:32:24 2200.000
VELOX 1 23 Nov 11:26:37 11:30:54 43° 99° (E) 11:35:08 145.980
ITAMSAT 1 23 Nov 11:27:07 11:30:31 18° 37° (NE) 11:33:56 435.822/435.867
YUBILEINY 23 Nov 11:29:53 11:36:55 26° 33° (NNE) 11:43:54 435.215
UNISAT 6 23 Nov 11:31:25 11:35:07 28° 267° (W) 11:38:51 437.425
DOVE 4 23 Nov 11:34:28 11:38:31 51° 295° (WNW) 11:42:33 437.250
ZACube-1 23 Nov 11:35:27 11:39:39 71° 105° (ESE) 11:43:53 437.345
COMPASS 1 23 Nov 11:36:30 11:40:27 39° 299° (WNW) 11:44:24 437.405
HUMSAT D 23 Nov 11:40:12 11:44:17 55° 102° (ESE) 11:48:23 437.325/437.525
DELFI C3 23 Nov 11:42:42 11:46:49 64° 292° (WNW) 11:50:55 145.870
Gurwin Techsat 1B 23 Nov 11:42:58 11:46:11 17° 35° (NE) 11:49:24 435.225
NANOSAT C BR1 23 Nov 11:43:31 11:47:15 29° 267° (W) 11:50:59 145.865
50 SAT 23 Nov 11:48:09 11:52:10 55° 102° (ESE) 11:56:10 437.505
AISAT 23 Nov 11:51:04 11:55:31 66° 105° (ESE) 11:59:56 437.250
QB50P1 23 Nov 11:53:19 11:56:51 25° 269° (W) 12:00:23 145.935-145.965
CUTE 1.7 & AOD 2 23 Nov 11:59:51 12:03:19 25° 307° (NW) 12:06:47 437.475
ANTELSAT 23 Nov 12:00:57 12:03:54 18° 273° (W) 12:06:52 437.575/2403.000
O/OREOS (USA 219) 23 Nov 12:01:34 12:04:57 21° 356° (N) 12:08:20 437.305
GOMX 1 23 Nov 12:03:46 12:07:22 28° 305° (NW) 12:10:55 467.674
JAS-2 23 Nov 12:04:54 12:09:22 17° 2° (N) 12:13:43 435.910
FUNcube-1 23 Nov 12:11:26 12:15:35 63° 292° (WNW) 12:19:46 145.935
UKube-1 23 Nov 12:13:12 12:17:21 43° 300° (WNW) 12:21:28 .
TISAT 1 23 Nov 12:13:38 12:16:46 20° 88° (E) 12:19:53 437.305
SPROUT 23 Nov 12:14:33 12:17:39 19° 87° (E) 12:20:43 437.525
CUBEBUG 1 23 Nov 12:14:39 12:18:58 50° 100° (E) 12:23:13 437.445
Oscar 19 23 Nov 12:17:22 12:22:14 46° 59° (ENE) 12:27:09 437.125/150
BRITE-PL 23 Nov 12:18:20 12:21:28 20° 311° (NW) 12:24:31 437.365/2234.400
POPSAT HIP 1 23 Nov 12:18:48 12:21:35 17° 274° (W) 12:24:23 437.405
SO-50 23 Nov 12:18:54 12:23:41 71° 216° (SW) 12:28:34 436.795
BUGSAT 1 23 Nov 12:19:39 12:22:38 18° 273° (W) 12:25:37 437.445
CUBEBUG 2 23 Nov 12:24:24 12:28:22 42° 298° (WNW) 12:32:21 437.445
HORYU 2 23 Nov 12:26:49 12:28:54 13° 37° (NE) 12:31:00 437.375
Oscar 11 23 Nov 12:26:54 12:30:45 31° 303° (WNW) 12:34:35 145.826/435.025
HO-68 23 Nov 12:27:36 12:34:12 41° 314° (NW) 12:40:46 435.675
UWE-3 23 Nov 12:30:34 12:34:31 42° 298° (WNW) 12:38:30 435.000/436.395/437.385
CINEMA 3 23 Nov 12:31:39 12:35:16 29° 303° (WNW) 12:38:54 145.822/145.860
SEEDS 23 Nov 12:36:59 12:39:42 17° 314° (NW) 12:42:25 437.485
AO-7 23 Nov 12:39:33 12:46:28 31° 25° (NNE) 12:53:25 29.400- 29.500
DX 1 23 Nov 12:46:12 12:49:54 28° 307° (NW) 12:53:36 434.975-435.025
ESTCUBE 1 23 Nov 12:51:34 12:56:10 88° 289° (WNW) 13:00:44 437.505/2401.250
AAUSAT CUBESAT 2 23 Nov 12:59:49 13:02:07 15° 316° (NW) 13:04:26 437.432
CANX-2 23 Nov 13:01:54 13:03:24 12° 321° (NW) 13:04:53 2200.000
VELOX 1 23 Nov 13:03:21 13:07:33 41° 300° (WNW) 13:11:42 145.980
ITAMSAT 1 23 Nov 13:04:02 13:09:04 50° 60° (ENE) 13:14:06 435.822/435.867
ZACube-1 23 Nov 13:12:18 13:15:46 25° 306° (NW) 13:19:14 437.345
DOVE 4 23 Nov 13:13:22 13:15:31 14° 317° (NW) 13:17:40 437.250
COMPASS 1 23 Nov 13:13:39 13:15:14 12° 321° (NW) 13:16:49 437.405
HUMSAT D 23 Nov 13:16:20 13:19:59 31° 303° (WNW) 13:23:39 437.325/437.525
GONETS M04 23 Nov 13:18:13 13:25:10 25° 330° (NNW) 13:32:08
DELFI C3 23 Nov 13:18:52 13:21:29 17° 313° (NW) 13:24:05 145.870
ITUPSAT 1 23 Nov 13:19:02 13:22:20 18° 85° (E) 13:25:36 437.325
Gurwin Techsat 1B 23 Nov 13:20:03 13:25:03 44° 58° (ENE) 13:30:05 435.225
50 SAT 23 Nov 13:23:48 13:27:21 30° 303° (WNW) 13:30:53 437.505
YUBILEINY 23 Nov 13:27:26 13:36:03 56° 63° (ENE) 13:44:35 435.215
AISAT 23 Nov 13:28:04 13:31:56 29° 306° (NW) 13:35:46 437.250
SWISSCUBE 23 Nov 13:30:51 13:34:39 23° 89° (E) 13:38:26 437.505
CUSAT 1 23 Nov 13:37:58 13:39:42 16° 92° (E) 13:41:28 437.405
O/OREOS (USA 219) 23 Nov 13:42:00 13:45:45 25° 21° (NNE) 13:49:30 437.305
JAS-2 23 Nov 13:46:20 13:52:01 23° 27° (NNE) 13:57:36 435.910
FUNcube-1 23 Nov 13:48:41 13:51:19 17° 314° (NW) 13:53:57 145.935
TISAT 1 23 Nov 13:48:56 13:53:13 84° 289° (WNW) 13:57:26 437.305
SPROUT 23 Nov 13:50:02 13:54:23 89° 288° (WNW) 13:58:41 437.525
UKube-1 23 Nov 13:50:27 13:52:36 14° 321° (NW) 13:54:46 .
CUBEBUG 1 23 Nov 13:51:15 13:55:18 36° 302° (WNW) 13:59:18 437.445
DANDE 23 Nov 13:51:28 13:53:24 18° 94° (E) 13:55:21 436.750
Oscar 19 23 Nov 13:56:45 14:01:40 46° 261° (W) 14:06:39 437.125/150
SO-50 23 Nov 13:59:51 14:03:41 24° 237° (WSW) 14:07:32 436.795
HORYU 2 23 Nov 14:00:27 14:04:36 41° 59° (ENE) 14:08:48 437.375
BEESAT 23 Nov 14:02:18 14:06:42 34° 95° (E) 14:11:04 436.000
CUBEBUG 2 23 Nov 14:02:28 14:04:11 12° 320° (NW) 14:05:55 437.445
AUBIESAT-1 23 Nov 14:03:58 14:08:23 34° 102° (ESE) 14:12:51 437.475
Oscar 11 23 Nov 14:05:03 14:05:48 10° 325° (NW) 14:06:33 145.826/435.025
M-CUBED/EXP-1 PRIME 23 Nov 14:07:11 14:11:44 37° 103° (ESE) 14:16:19 437.505
UWE-3 23 Nov 14:08:29 14:10:11 12° 320° (NW) 14:11:54 435.000/436.395/437.385
HO-68 23 Nov 14:15:14 14:20:21 22° 339° (NNW) 14:25:28 435.675
ESTCUBE 1 23 Nov 14:28:58 14:32:35 23° 310° (NW) 14:36:11 437.505/2401.250
CUTE-I 23 Nov 14:29:25 14:31:11 12° 22° (NNE) 14:32:57 437.470
AO-7 23 Nov 14:29:55 14:37:59 59° 51° (NE) 14:46:07 29.400- 29.500
STARS 23 Nov 14:38:34 14:41:20 16° 85° (E) 14:44:05 437.465
VELOX 1 23 Nov 14:41:03 14:43:10 13° 322° (NW) 14:45:17 145.980
ITAMSAT 1 23 Nov 14:43:42 14:48:42 44° 262° (W) 14:53:43 435.822/435.867
ITUPSAT 1 23 Nov 14:56:12 15:01:04 76° 107° (ESE) 15:05:54 437.325
Gurwin Techsat 1B 23 Nov 14:59:50 15:05:02 53° 259° (W) 15:10:16 435.225
AISAT 23 Nov 15:06:40 15:07:22 10° 328° (NNW) 15:08:05 437.250
SWISSCUBE 23 Nov 15:08:18 15:13:09 86° 290° (WNW) 15:17:59 437.505
KKS-1 23 Nov 15:12:48 15:16:56 35° 96° (E) 15:21:01 437.445
CUSAT 1 23 Nov 15:20:11 15:22:37 34° 296° (WNW) 15:25:11 437.405
GONETS M04 23 Nov 15:20:18 15:26:06 18° 3° (N) 15:31:54
O/OREOS (USA 219) 23 Nov 15:21:32 15:25:59 61° 45° (NE) 15:30:25 437.305
Cubesat XI-IV 23 Nov 15:24:31 15:28:00 18° 36° (NE) 15:31:29 437.490
YUBILEINY 23 Nov 15:24:35 15:33:05 58° 269° (W) 15:41:30 435.215
TISAT 1 23 Nov 15:25:24 15:28:34 21° 311° (NW) 15:31:43 437.305
SPROUT 23 Nov 15:26:43 15:30:01 22° 310° (NW) 15:33:19 437.525
JAS-2 23 Nov 15:28:10 15:35:27 45° 51° (NE) 15:42:41 435.910
CUBEBUG 1 23 Nov 15:29:00 15:30:38 12° 324° (NW) 15:32:16 437.445
DANDE 23 Nov 15:34:25 15:36:47 29° 297° (WNW) 15:39:12 436.750
HORYU 2 23 Nov 15:37:04 15:41:20 44° 261° (W) 15:45:37 437.375
AUBIESAT-1 23 Nov 15:38:52 15:43:41 65° 302° (WNW) 15:48:33 437.475
BEESAT 23 Nov 15:40:07 15:44:51 57° 296° (WNW) 15:49:33 436.000
Oscar 19 23 Nov 15:40:49 15:42:23 11° 283° (WNW) 15:43:58 437.125/150
M-CUBED/EXP-1 PRIME 23 Nov 15:42:13 15:47:00 59° 303° (WNW) 15:51:52 437.505
HO-68 23 Nov 16:01:19 16:05:52 18° 5° (N) 16:10:24 435.675
CUTE-I 23 Nov 16:05:22 16:09:42 26° 46° (NE) 16:14:02 437.470
STARS 23 Nov 16:14:11 16:18:37 76° 106° (ESE) 16:23:01 437.465
RS-15 23 Nov 16:15:35 16:23:33 24° 101° (ESE) 16:31:32 29.354- 29.394
AO-7 23 Nov 16:22:44 16:30:55 60° 255° (WSW) 16:39:11 29.400- 29.500
ITAMSAT 1 23 Nov 16:28:18 16:29:37 11° 284° (WNW) 16:30:56 435.822/435.867
ITUPSAT 1 23 Nov 16:34:30 16:38:39 29° 308° (NW) 16:42:47 437.325
Gurwin Techsat 1B 23 Nov 16:43:45 16:46:17 13° 282° (WNW) 16:48:50 435.225
SWISSCUBE 23 Nov 16:46:40 16:50:32 24° 312° (NW) 16:54:22 437.505
KKS-1 23 Nov 16:49:28 16:53:46 49° 297° (WNW) 16:58:03 437.445
O/OREOS (USA 219) 23 Nov 17:01:11 17:05:14 34° 247° (WSW) 17:09:17 437.305
Cubesat XI-IV 23 Nov 17:01:57 17:07:05 48° 59° (ENE) 17:12:14 437.490
JAS-2 23 Nov 17:12:17 17:20:06 78° 254° (WSW) 17:27:59 435.910
AUBIESAT-1 23 Nov 17:14:19 17:18:03 23° 322° (NW) 17:21:50 437.475
M-CUBED/EXP-1 PRIME 23 Nov 17:17:44 17:21:21 22° 324° (NW) 17:25:03 437.505
BEESAT 23 Nov 17:18:40 17:21:54 18° 318° (NW) 17:25:08 436.000
GONETS M04 23 Nov 17:19:36 17:26:53 27° 35° (NE) 17:34:08
YUBILEINY 23 Nov 17:22:17 17:28:03 20° 295° (WNW) 17:33:47 435.215
MOZHAYETS 4 23 Nov 17:35:05 17:39:24 36° 95° (E) 17:43:42
CUTE-I 23 Nov 17:43:49 17:49:12 80° 68° (ENE) 17:54:35 437.470
HO-68 23 Nov 17:45:48 17:51:32 27° 31° (NNE) 17:57:17 435.675
MaSat-1 23 Nov 17:50:56 17:53:41 67° 132° (SE) 17:56:13 437.345
STARS 23 Nov 17:51:07 17:54:47 26° 308° (NW) 17:58:27 437.465
PRISM 23 Nov 18:07:14 18:10:13 18° 88° (E) 18:13:11 437.425
ITUPSAT 1 23 Nov 18:13:47 18:15:15 11° 331° (NNW) 18:16:43 437.325
CUTE 1.7 & AOD 2 23 Nov 18:18:14 18:19:56 12° 39° (NE) 18:21:38 437.475
AO-7 23 Nov 18:19:51 18:25:40 20° 280° (W) 18:31:31 29.400- 29.500
RS-15 23 Nov 18:22:59 18:33:35 61° 129° (SE) 18:44:21 29.354- 29.394
KKS-1 23 Nov 18:27:03 18:29:35 15° 319° (NW) 18:32:06 437.445
GOMX 1 23 Nov 18:30:50 18:32:50 13° 40° (NE) 18:34:48 467.674
UKube-1 23 Nov 18:35:27 18:35:29 10° 32° (NNE) 18:35:32 .
STRAND 1 23 Nov 18:39:37 18:43:11 19° 85° (E) 18:46:44 437.568
Cubesat XI-IV 23 Nov 18:42:05 18:47:16 48° 261° (W) 18:52:29 437.490
BRITE-PL 23 Nov 18:45:08 18:48:22 19° 47° (NE) 18:51:27 437.365/2234.400
Oscar 11 23 Nov 18:47:21 18:48:28 11° 36° (NE) 18:49:36 145.826/435.025
AUBIESAT-1 23 Nov 18:49:56 18:51:42 12° 344° (NNW) 18:53:31 437.475
SEEDS 23 Nov 18:53:07 18:55:52 17° 47° (NE) 18:58:37 437.485
M-CUBED/EXP-1 PRIME 23 Nov 18:53:24 18:55:02 12° 346° (NNW) 18:56:41 437.505
CINEMA 3 23 Nov 18:56:00 18:57:10 11° 38° (NE) 18:58:20 145.822/145.860
